When you browse on this site, cookies collect data to enhance your experience and personalize the content and advertising you see.
Visit our Privacy Policy to learn more. By continuing to use the site, you agree to this use of cookies and data.
EN

Hourly Weather Manaus

Today, 9 July, Thursday

Time Temperature Precipitation Wind Pressure Humidity
00:00 +23°C° 0.3 mm 0 mps 755 mmHg 93%
01:00 +23°C° 0.3 mm 0 mps 754 mmHg 94%
02:00 +23°C° 0 mm 0 mps 754 mmHg 96%
03:00 +23°C° 0.5 mm 0 mps 754 mmHg 96%
04:00 +23°C° 0.5 mm 0 mps 754 mmHg 96%
05:00 +22°C° 0.5 mm 0 mps 755 mmHg 96%
06:00 +25°C° 0.2 mm 1 mps 755 mmHg 94%
07:00 +26°C° 0.2 mm 1 mps 755 mmHg 93%
08:00 +27°C° 0.2 mm 1 mps 756 mmHg 91%
09:00 +29°C° 0 mm 1 mps 755 mmHg 79%
10:00 +31°C° 0 mm 2 mps 755 mmHg 67%
11:00 +34°C° 0 mm 2 mps 755 mmHg 56%
12:00 +35°C° 0 mm 2 mps 755 mmHg 53%
13:00 +35°C° 0 mm 2 mps 754 mmHg 50%
14:00 +36°C° 0 mm 2 mps 753 mmHg 48%
15:00 +34°C° 0 mm 1 mps 753 mmHg 52%
16:00 +34°C° 0 mm 1 mps 752 mmHg 56%
17:00 +33°C° 0 mm 1 mps 752 mmHg 60%
18:00 +31°C° 0 mm 1 mps 752 mmHg 64%
19:00 +28°C° 0 mm 0 mps 753 mmHg 68%
20:00 +26°C° 0 mm 0 mps 753 mmHg 72%
21:00 +26°C° 0 mm 0 mps 754 mmHg 72%
22:00 +28°C° 0 mm 1 mps 754 mmHg 73%
23:00 +27°C° 0 mm 1 mps 755 mmHg 74%

Tomorrow, 10 July, Friday

Time Temperature Precipitation Wind Pressure Humidity
00:00 +27°C° 0.1 mm 1 mps 754 mmHg 79%
01:00 +26°C° 0.1 mm 1 mps 754 mmHg 84%
02:00 +25°C° 0.1 mm 1 mps 754 mmHg 88%
03:00 +25°C° 0.1 mm 1 mps 754 mmHg 91%
04:00 +25°C° 0.1 mm 1 mps 754 mmHg 93%
05:00 +24°C° 0.1 mm 1 mps 754 mmHg 95%
06:00 +25°C° 0.2 mm 1 mps 755 mmHg 94%
07:00 +26°C° 0.2 mm 1 mps 755 mmHg 92%
08:00 +26°C° 0.2 mm 1 mps 755 mmHg 91%
09:00 +28°C° 0.2 mm 1 mps 755 mmHg 84%
10:00 +30°C° 0.2 mm 1 mps 756 mmHg 78%
11:00 +31°C° 0.2 mm 1 mps 756 mmHg 72%
12:00 +32°C° 0.4 mm 1 mps 755 mmHg 68%
13:00 +33°C° 0.4 mm 1 mps 754 mmHg 65%
14:00 +33°C° 0.4 mm 1 mps 753 mmHg 62%
15:00 +33°C° 0.1 mm 1 mps 753 mmHg 64%
16:00 +32°C° 0.1 mm 1 mps 752 mmHg 66%
17:00 +32°C° 0.1 mm 1 mps 752 mmHg 68%
18:00 +30°C° 0 mm 1 mps 753 mmHg 73%
19:00 +29°C° 0 mm 1 mps 753 mmHg 78%
20:00 +27°C° 0 mm 1 mps 753 mmHg 83%
21:00 +27°C° 0 mm 1 mps 754 mmHg 84%
22:00 +25°C° 0 mm 0 mps 754 mmHg 85%
23:00 +24°C° 0 mm 0 mps 755 mmHg 86%

Day after tomorrow, 11 July, Saturday

Time Temperature Precipitation Wind Pressure Humidity
00:00 +24°C° 0 mm 0 mps 754 mmHg 87%
01:00 +24°C° 0 mm 0 mps 754 mmHg 88%
02:00 +23°C° 0 mm 0 mps 753 mmHg 89%
03:00 +23°C° 0 mm 0 mps 754 mmHg 88%
04:00 +23°C° 0 mm 0 mps 754 mmHg 88%
05:00 +23°C° 0 mm 0 mps 754 mmHg 88%
06:00 +26°C° 0 mm 1 mps 754 mmHg 84%
07:00 +27°C° 0 mm 1 mps 755 mmHg 81%
08:00 +28°C° 0 mm 1 mps 755 mmHg 77%
09:00 +30°C° 0 mm 1 mps 755 mmHg 70%
10:00 +31°C° 0 mm 1 mps 755 mmHg 62%
11:00 +34°C° 0 mm 2 mps 755 mmHg 55%
12:00 +35°C° 0.1 mm 2 mps 754 mmHg 52%
13:00 +35°C° 0.1 mm 2 mps 753 mmHg 50%
14:00 +36°C° 0.1 mm 2 mps 752 mmHg 48%
15:00 +34°C° 0 mm 1 mps 752 mmHg 52%
16:00 +34°C° 0 mm 1 mps 752 mmHg 56%
17:00 +33°C° 0 mm 1 mps 752 mmHg 61%
18:00 +31°C° 0 mm 1 mps 752 mmHg 66%
19:00 +30°C° 0 mm 1 mps 753 mmHg 71%
20:00 +28°C° 0 mm 1 mps 753 mmHg 76%
21:00 +27°C° 0 mm 1 mps 754 mmHg 78%
22:00 +27°C° 0 mm 1 mps 754 mmHg 80%
23:00 +26°C° 0 mm 1 mps 755 mmHg 82%

12 July, Sunday

Time Temperature Precipitation Wind Pressure Humidity
00:00 +26°C° 0 mm 1 mps 754 mmHg 84%
01:00 +26°C° 0 mm 1 mps 754 mmHg 85%
02:00 +25°C° 0 mm 1 mps 753 mmHg 86%
03:00 +23°C° 0 mm 0 mps 753 mmHg 88%
04:00 +23°C° 0 mm 0 mps 754 mmHg 89%
05:00 +22°C° 0 mm 0 mps 754 mmHg 90%
06:00 +24°C° 0 mm 0 mps 754 mmHg 85%
07:00 +25°C° 0 mm 0 mps 755 mmHg 80%
08:00 +28°C° 0 mm 1 mps 755 mmHg 75%
09:00 +30°C° 0 mm 1 mps 755 mmHg 67%
10:00 +32°C° 0 mm 2 mps 755 mmHg 58%
11:00 +35°C° 0 mm 2 mps 755 mmHg 49%
12:00 +35°C° 0 mm 2 mps 754 mmHg 47%
13:00 +36°C° 0 mm 2 mps 753 mmHg 45%
14:00 +37°C° 0 mm 2 mps 752 mmHg 43%
15:00 +36°C° 0 mm 2 mps 752 mmHg 48%
16:00 +34°C° 0 mm 1 mps 752 mmHg 53%
17:00 +33°C° 0 mm 1 mps 751 mmHg 59%
18:00 +31°C° 0 mm 1 mps 752 mmHg 62%
19:00 +30°C° 0 mm 1 mps 752 mmHg 66%
20:00 +29°C° 0 mm 1 mps 753 mmHg 69%
21:00 +29°C° 0 mm 1 mps 753 mmHg 71%
22:00 +28°C° 0 mm 1 mps 754 mmHg 72%
23:00 +28°C° 0 mm 1 mps 754 mmHg 74%

13 July, Monday

Time Temperature Precipitation Wind Pressure Humidity
00:00 +27°C° 0.2 mm 1 mps 754 mmHg 79%
01:00 +26°C° 0.2 mm 1 mps 753 mmHg 85%
02:00 +25°C° 0.2 mm 1 mps 753 mmHg 90%
03:00 +25°C° 0 mm 1 mps 753 mmHg 91%
04:00 +23°C° 0 mm 0 mps 753 mmHg 91%
05:00 +22°C° 0 mm 0 mps 753 mmHg 92%
06:00 +23°C° 0 mm 0 mps 754 mmHg 89%
07:00 +24°C° 0 mm 0 mps 755 mmHg 87%
08:00 +25°C° 0 mm 0 mps 755 mmHg 84%
09:00 +26°C° 0 mm 0 mps 755 mmHg 78%
10:00 +30°C° 0 mm 1 mps 755 mmHg 72%
11:00 +31°C° 0 mm 1 mps 755 mmHg 66%
12:00 +32°C° 0 mm 1 mps 754 mmHg 59%
13:00 +34°C° 0 mm 1 mps 754 mmHg 53%
14:00 +35°C° 0 mm 1 mps 753 mmHg 46%
15:00 +35°C° 0 mm 1 mps 753 mmHg 50%
16:00 +34°C° 0 mm 1 mps 752 mmHg 55%
17:00 +33°C° 0 mm 1 mps 752 mmHg 59%
18:00 +32°C° 0 mm 1 mps 753 mmHg 63%
19:00 +28°C° 0 mm 0 mps 753 mmHg 68%
20:00 +26°C° 0 mm 0 mps 754 mmHg 73%
21:00 +28°C° 0 mm 1 mps 754 mmHg 75%
22:00 +27°C° 0 mm 1 mps 754 mmHg 78%
23:00 +26°C° 0 mm 1 mps 755 mmHg 81%

14 July, Tuesday

Time Temperature Precipitation Wind Pressure Humidity
00:00 +24°C° 0 mm 0 mps 754 mmHg 83%
01:00 +23°C° 0 mm 0 mps 754 mmHg 86%
02:00 +23°C° 0 mm 0 mps 754 mmHg 88%
03:00 +23°C° 0.1 mm 0 mps 754 mmHg 90%
04:00 +22°C° 0.1 mm 0 mps 754 mmHg 91%
05:00 +22°C° 0.1 mm 0 mps 754 mmHg 92%
06:00 +23°C° 0 mm 0 mps 755 mmHg 88%
07:00 +25°C° 0 mm 0 mps 755 mmHg 84%
08:00 +26°C° 0 mm 0 mps 756 mmHg 80%
09:00 +28°C° 0 mm 0 mps 756 mmHg 70%
10:00 +31°C° 0 mm 0 mps 755 mmHg 59%
11:00 +34°C° 0 mm 0 mps 755 mmHg 48%
12:00 +36°C° 0 mm 1 mps 755 mmHg 46%
13:00 +36°C° 0 mm 1 mps 754 mmHg 44%
14:00 +37°C° 0 mm 2 mps 753 mmHg 42%
15:00 +35°C° 0 mm 1 mps 753 mmHg 46%
16:00 +34°C° 0 mm 1 mps 752 mmHg 51%
17:00 +34°C° 0 mm 1 mps 752 mmHg 55%
18:00 +32°C° 0 mm 1 mps 753 mmHg 59%
19:00 +30°C° 0 mm 1 mps 753 mmHg 62%
20:00 +29°C° 0 mm 1 mps 753 mmHg 66%
21:00 +28°C° 0 mm 1 mps 754 mmHg 69%
22:00 +27°C° 0 mm 1 mps 754 mmHg 72%
23:00 +27°C° 0 mm 1 mps 754 mmHg 75%
Show more